Starlink 32398

operational
NORAD ID: 61624 Int'l Des: 2024-191 Owner: SPXS Country: US Constellation: starlink
LEOCIRCULAR

About Starlink 32398

Description loading...

Live Position

Loading 3D Globe...

Upcoming Passes

Altitude History

Altitude vs Time

uPlot chart will show altitude changes over time

Two-Line Element Set

1 61624U 24191D 25259.15730663 -.00000800 00000-0 -19555-4 0 9999
2 61624 43.0011 60.1929 0000873 276.4239 83.6513 15.27571683 50846
Epoch: Sep 16, 2025 • Age: 8 hours

Current Status

Altitude 494.7 km
Velocity 7.62 km/s
Sub-Earth Point -40.46°S, 172.32°W
Launch Date Oct 23, 2024
Age 0.8 years
Type internet

Technical Details

Classification Payload
Mass 730.00 kg
Dry Mass 700.00 kg
Total Mass 730.00 kg
Length 0.30 m
Diameter 4.10 m
Span 29.00 m
Shape Box + pan
Manufacturer SPXS
Bus Type Starlink V2M
Phase Status In Orbit
Owner/State SPXS/US

Large Constellations

Loading constellations...